User: anonymous   Login
Location: Zagreb
(45.8000°N, 16.0000°E)
Time: 00:30:27
(UTC+01:00)
Language:

DIWATA 2B (PO-101) - Orbit

View from above orbital plane
View from above orbital plane
View from above satellite
View from above satellite

Ground track
Ground track

The orbit data is extracted from the following two-line orbital elements,

1 43678U 18084H   20304.77721692  .00000554  00000-0  60840-4 0  9995
2 43678  97.8987  63.2950 0011440  89.8091 270.4450 14.91668002109197
Epoch (UTC): 30 October 2020 18:39:11
Eccentricity: 0.0011440
inclination: 97.8987°
perigee height: 585 km
apogee height: 601 km
right ascension of ascending node: 63.2950°
argument of perigee: 89.8091°
revolutions per day: 14.91668002
mean anomaly at epoch: 270.4450°
orbit number at epoch: 10919

The dashed part of the orbit path shows where the satellite is in the earth's shadow,  

DLR